ATLAS 5 CENTAUR R/B, 41867

Orbit data source: Space-Track

ATLAS 5 CENTAUR R/B, 41867 is space debris in HEO originally from a launch on Sat, 19 Nov 2016 UTC launched from the Air Force Eastern Test Range (AFETR). Debris objects in space refer to the collection of defunct objects orbiting the Earth. Examples of debris include non-operational satellites, rocket bodies, and fragments generated from explosions, collisions, or faulty payload assembly.

Loading next visibility...
Identifier
41867, 2016-071B
Orbit
HEO
Last TLE update
2 days ago
Origin
Flag of USUnited Launch Alliance/Lockheed Martin (US)
Manufacturer
ULA Decatur
Mission
Spacecraft
Bus & Motor
CENTAUR SEC, RL10C-1
Mass
~2,020 kg wet, 2,020 kg dry
Launch date (UTC)
2016-11-19 (9 years ago)
Launch vehicle
Unknown
Launch site
Air Force Eastern Test Range (AFETR)
Object type
Payload
Rocket body
Debris
Shape & HBR
Cyl + 1 Nozzle, 5.8 m
Radar Cross Section
32.260 m², Large (>1 m²)

Expand to show TLE details & history

TLE from 2 days ago
0 ATLAS 5 CENTAUR R/B
1 41867U 16071B   25197.75241208 -.00000041  00000-0  00000-0 0  9990
2 41867  11.4461 287.0072 4916283 100.7433 316.1737  1.89345854 59865
Epoch: 2025-07-16T18:03Z
TLE epoch observation values (Epoch: 2025-07-16T18:03:28.403Z)
Latitude
0.00003°
Longitude
81.42205°
Altitude
16,664.138 km
Speed
4.489 km/s
True Right ascension
19h 08m 28s
True Declination
0° 00' 00"
Sunlit
Object was in daylight at epoch
Visualization orbit readout
Latitude
7.46093°
Longitude
-138.93116°
Altitude
8,743.395 km
Speed
6.187 km/s
Apparent Right ascension
05h 41m 14s
Apparent Declination
-7° 50' 42"
Sunlit
Object is in daylight
Visualization observer readout
Local Sidereal Time
22:48:24
Azimuth
87.592° E
Elevation
-15.141°
Doppler factor
1
Orbital elements
Apogee altitude
34,793.168 km
Perigee altitude
7,653.728 km
Semi-major axis
27,601.585 km
Eccentricity
0.49163
Inclination
11.4461°
RAAN
287.0072°
Arg. of periapsis
100.7433°
True anomaly
259.26809°
Mean anomaly
316.1737°
Eccentric anomaly
289.64505°
Mean motion
0.47331 °/min
Orbital period
760.61 mins
BSTAR
0
Loading maneuver chart data...
Loading SW <> Apogee altitude chart data...
Loading historical data...
Loading historical data...
Loading historical data...
Loading historical data...
Loading historical data...
Loading historical data...
Loading historical data...
Other satellites on launch #71 in the year 2016 (2016-11-19 UTC)
|